Location: Alafon
(8.4500°N, 4.2333°E)
Time: 03:47:04
(UTC+00:00)

A-11 Canister half - All Passes

Search period start: 06 August 2021 00:00
Search period end: 16 August 2021 00:00
Orbit: 1513 x 1687 km, 47.2° (Epoch: 05 August)

Date Brightness Start Highest point End Pass type
(mag) Time Alt. Az. Time Alt. Az. Time Alt. Az.
06 Aug - 01:56:24 10° W 02:02:03 16° SW 02:07:39 10° SSW night (unlit)
06 Aug - 10:41:52 10° SSE 10:47:37 18° SE 10:53:23 10° E daylight
06 Aug - 12:42:50 10° SW 12:52:09 85° NW 13:01:47 10° NE daylight
06 Aug - 14:51:44 10° W 14:57:45 18° NW 15:03:55 10° N daylight
06 Aug - 21:21:40 10° N 21:28:42 21° NE 21:35:41 10° E visible
06 Aug - 23:24:08 10° NW 23:34:21 88° NE 23:44:23 10° SE visible
07 Aug - 01:32:47 10° W 01:39:06 18° SW 01:45:20 10° SSW night (unlit)
07 Aug - 10:19:35 10° SSE 10:24:41 16° SE 10:29:48 10° E daylight
07 Aug - 12:19:56 10° SW 12:29:15 89° SE 12:38:50 10° NE daylight
07 Aug - 14:28:19 10° W 14:34:43 20° NW 14:41:17 10° N daylight
07 Aug - 20:59:02 10° N 21:05:38 19° NE 21:12:12 10° E visible
07 Aug - 23:01:11 10° NW 23:11:25 82° NE 23:21:27 10° SE visible
08 Aug - 01:09:16 10° W 01:16:08 21° SW 01:22:56 10° S night (unlit)
08 Aug - 09:57:27 10° SSE 10:01:45 14° SE 10:06:05 10° E daylight
08 Aug - 11:57:04 10° SW 12:06:21 83° SE 12:15:54 10° NE daylight
08 Aug - 14:04:57 10° W 14:11:41 22° NW 14:18:37 10° N daylight
08 Aug - 20:36:27 10° N 20:42:33 17° NE 20:48:38 10° ENE visible
08 Aug - 22:38:16 10° NW 22:48:27 77° NE 22:58:30 10° SE visible
09 Aug - 00:45:50 10° W 00:53:11 23° SW 01:00:29 10° S night (unlit)
09 Aug - 09:35:32 10° SSE 09:38:50 12° SE 09:42:07 10° ESE daylight
09 Aug - 11:34:13 10° SW 11:43:27 76° SE 11:52:56 10° NE daylight
09 Aug - 13:41:38 10° W 13:48:41 24° NW 13:55:56 10° N daylight
09 Aug - 20:13:55 10° N 20:19:28 16° NE 20:25:00 10° ENE visible
09 Aug - 22:15:21 10° NW 22:25:30 71° NE 22:35:32 10° SE visible
10 Aug - 00:22:28 10° WNW 00:30:14 25° SW 00:37:57 10° S night (unlit)
10 Aug - 09:14:18 10° SE 09:15:53 10° SE 09:17:28 10° ESE daylight
10 Aug - 11:11:22 10° SSW 11:20:33 70° SE 11:29:57 10° NE daylight
10 Aug - 13:18:21 10° W 13:25:41 26° NW 13:33:14 10° N daylight
10 Aug - 19:51:28 10° N 19:56:22 14° NE 20:01:16 10° ENE visible
10 Aug - 21:52:26 10° NNW 22:02:32 66° NE 22:12:31 10° SE visible
10 Aug - 23:59:09 10° WNW 00:07:18 28° SW 00:15:22 10° S night (unlit)
11 Aug - 10:48:34 10° SSW 10:57:40 65° SE 11:06:58 10° NE daylight
11 Aug - 12:55:06 10° W 13:02:42 28° NW 13:10:30 10° NNE daylight
11 Aug - 19:29:08 10° N 19:33:16 13° NE 19:37:24 10° ENE visible
11 Aug - 21:29:34 10° NNW 21:39:34 61° NE 21:49:30 10° SE visible
11 Aug - 23:35:52 10° WNW 23:44:21 31° SW 23:52:46 10° S visible
12 Aug - 10:25:46 10° SSW 10:34:47 59° SE 10:43:57 10° NE daylight
12 Aug - 12:31:54 10° WSW 12:39:43 30° NW 12:47:45 10° NNE daylight
12 Aug - 19:07:00 10° NNE 19:10:09 12° NE 19:13:18 10° NE visible
12 Aug - 21:06:42 10° NNW 21:16:36 56° NE 21:26:27 10° SE visible
12 Aug - 23:12:39 10° WNW 23:21:24 34° SW 23:30:06 10° S visible
13 Aug - 10:02:59 10° SSW 10:11:54 54° SE 10:20:56 10° NE daylight
13 Aug - 12:08:43 10° WSW 12:16:45 33° NW 12:25:00 10° NNE daylight
13 Aug - 18:45:25 10° NNE 18:47:01 10° NE 18:48:36 10° NE visible
13 Aug - 20:43:50 10° NNW 20:53:38 52° NE 21:03:23 10° ESE visible
13 Aug - 22:49:27 10° WNW 22:58:28 37° SW 23:07:25 10° SSE visible
14 Aug - 09:40:13 10° SSW 09:49:01 49° SE 09:57:54 10° ENE daylight
14 Aug - 11:45:34 10° WSW 11:53:47 36° NW 12:02:14 10° NNE daylight
14 Aug - 20:21:00 10° NNW 20:30:40 48° NE 20:40:17 10° ESE visible
14 Aug - 22:26:17 10° WNW 22:35:31 40° SW 22:44:43 10° SSE visible
15 Aug - 09:17:29 10° SSW 09:26:08 45° SE 09:34:50 10° ENE daylight
15 Aug - 11:22:27 10° WSW 11:30:51 39° NW 11:39:27 10° NNE daylight
15 Aug - 19:58:11 10° NNW 20:07:40 44° NE 20:17:10 10° ESE visible
15 Aug - 22:03:09 10° WNW 22:12:35 44° SW 22:21:59 10° SSE visible
